星链-6186 (STARLINK-6186 )

导读

STARLINK-6186是美国太空探索技术公司 SpaceX 星链互联网卫星星座的一员,于2023年6月12日发射升空,主要为全球提供低延迟、高速率的卫星互联网服务,尤其能为地面网络覆盖匮乏偏远地区提供网络连接。作为星链批量组网卫星之一,它进一步扩充了星链低轨卫星星座规模,增强星座服务容量与覆盖能力。

基本信息
目录编号:
56908
目录名称:
STARLINK-6186
国际标识:
2023-083AJ
轨道中心:
EARTH
卫星名称:
星链-6186
卫星全名:
星链-6186 (STARLINK-6186 )
卫星状态:
在轨 (已飞行1098 天)
发射日期:
2023-06-12 UTC
国别 :
美国 (US)
星等 :
--
轨道信息
数据来源 国际轨道数据
星历时间: 2026-06-14T19:46:32+0800
8小时前
查看轨道信息
半长轴: 6861.206km
偏心率: 0.0001592
轨道倾角: 43.000°
近地点辐角 263.236°
升交点赤经 243.910°
平近点角 96.831°
近地点: 481.976km
远地点: 484.162km
周期: 94.267分钟
每日圈数: 15.275736
详细信息
固有亮度:
5
最大亮度:
2.4
卫星平台:
Starlink v1.5
覆盖范围:
全球
运营商:
太空探索技术公司
运营商所在国:
美国
制造商(研发单位):
太空探索技术公司
制造商所在国:
美国
使用方式:
暂无
卫星简介
星链(Starlink)计划是由太空探索技术公司(SpaceX)提出的一个巨型低轨卫星互联网星座项目,计划在2019年至2024年间在太空搭建由约1.2万颗卫星组成的“星链”网络,其中1584颗将部署在地球上空550千米处的近地轨道,并从2020年开始工作。该卫星仍在工作。
2D轨道图
3D轨道图
轨道高度分析图
轨道倾角分析图
轨道综合分析图
查看轨道综合分析图